Location: Okie-Tex Star Party
(36.8978°N, 102.9520°W)
Time: 22:34:37
(UTC-05:00)

Daily predictions for brighter satellites

Satellite Brightness Start Highest point End
(mag) Time Altitude Azimuth Time Altitude Azimuth Time Altitude Azimuth
SL-19 R/B 4.4 19:57:34 10° SSE 20:03:03 61° ENE 20:08:49 10° N
COSMO-SKYMED 1 2.7 20:00:22 10° N 20:04:43 84° WNW 20:09:04 10° SSW
Cosmos 1378 4.0 20:01:29 10° NNE 20:04:44 28° ENE 20:07:59 10° SE
DMSP B5D1-3 4.5 20:01:44 10° NNE 20:06:51 77° ESE 20:11:56 10° S
Meteor 1-22 Rocket 4.2 20:02:30 10° S 20:07:44 55° E 20:12:54 10° NNE
Meteor 1-28 Rocket 3.5 20:04:31 10° NNE 20:08:04 42° E 20:11:36 10° S
OAO 3 Rocket 3.4 20:03:40 10° WSW 20:08:20 59° S 20:13:05 10° E
ALOS 3.9 20:06:14 10° E 20:08:49 15° ENE 20:11:24 10° NNE
Cosmos 2278 Rocket 2.4 20:03:23 10° NNW 20:09:04 83° WSW 20:14:43 10° SSE
NOSS 3-2 (A) 3.5 20:06:40 10° SSW 20:12:36 68° ESE 20:19:02 10° NE
Cosmos 2297 3.9 20:08:27 10° NNW 20:13:59 52° ENE 20:19:28 10° SE
Cosmos 1707 2.9 20:11:32 10° N 20:15:24 79° W 20:19:13 10° S
SAR-Lupe-4 3.5 20:15:19 10° SSE 20:18:51 72° ENE 20:22:25 10° N
CZ-4C R/B 3.6 20:14:12 10° WSW 20:19:10 40° NW 20:24:43 10° NNE
Meteor 2-5 Rocket 4.2 20:14:16 10° NNW 20:19:51 67° W 20:25:19 10° S
Meteor 1-24 Rocket 3.6 20:14:29 10° N 20:20:07 68° E 20:25:31 10° SSE
FREGAT/IRIS 3.1 20:17:37 10° SSE 20:20:32 41° ENE 20:23:28 10° N
SJ-6B 2.8 20:17:41 10° SSE 20:21:34 63° ENE 20:25:34 10° N
Cosmos 1437 2.8 20:21:38 10° N 20:24:54 85° W 20:28:09 10° S
Cosmos 1766 Rocket 4.3 20:21:08 10° NNE 20:25:03 31° ENE 20:28:54 10° SE
Cosmos 2034 Rocket 4.3 20:22:05 10° SSE 20:27:56 44° E 20:33:51 10° NNE
Cosmos 1603 4.4 20:24:02 10° SSE 20:29:03 33° ESE 20:34:06 10° NE
Cosmos 1464 Rocket 4.0 20:24:12 10° S 20:30:22 64° E 20:36:30 10° NNE
Cosmos 1758 3.9 20:27:12 10° SSE 20:30:54 34° E 20:34:38 10° NNE
Timation 1 Rocket 4.5 20:26:22 10° NNW 20:32:14 54° ENE 20:38:01 10° SE
GPS 2-04 Rocket1 4.0 20:37:05 10° SSW 20:39:49 21° SSE 20:41:01 18° SE
Spot 2 Rocket 3.5 20:36:09 10° SSE 20:41:06 61° ENE 20:46:04 10° N
Cosmos 1076 Rocket 3.5 20:37:22 10° N 20:41:40 61° E 20:45:57 10° SSE
Helios 1B rocket 2.3 20:39:35 10° NNE 20:43:41 67° E 20:47:46 10° S
Cosmos-2242 3.3 20:40:08 10° SSE 20:44:16 45° E 20:48:27 10° NNE
FengYun 1-2 T 4.4 20:40:00 10° SE 20:45:18 51° ENE 20:50:37 10° N
ASTEX 1 4.1 20:41:53 10° NNE 20:46:13 30° E 20:50:29 10° SSE
SL-8 R/B 4.2 20:42:37 10° SSW 20:47:04 40° SE 20:49:42 21° E
Cosmos 2056 Rocket 4.0 20:42:20 10° NNW 20:47:43 68° WSW 20:53:04 10° S
CENTAUR R/B 3.3 20:45:28 10° SSE 20:50:07 24° ESE 20:53:11 17° ENE
NOSS 3-2 (C) 3.5 20:44:15 10° SW 20:50:16 82° WNW 20:56:50 10° NNE
Cosmos 1674 4.3 20:49:53 10° NNE 20:51:56 19° ENE 20:51:56 19° ENE
Cosmos 1842 Rocket 4.4 20:55:05 27° E 20:55:17 27° E 20:58:57 10° NNE
ASTRO E2 3.6 20:53:15 10° WSW 20:57:00 37° S 20:58:31 27° SE
In-Cosmos 22 4.2 20:51:31 10° N 20:57:19 74° E 21:03:01 10° SSE
Cosmos 1408 Rocket 3.4 20:55:26 10° N 20:59:49 87° E 21:04:07 10° S
Abrixas 3.0 20:59:33 10° SSW 21:02:06 40° SSE 21:02:06 40° SSE
Meteor 1-21 Rocket 4.2 20:57:56 10° N 21:03:27 60° E 21:08:53 10° SSE
Atlas Centaur 2 3.9 20:55:38 10° W 21:03:29 41° SSW 21:08:50 18° SE
HJ-1C 3.9 21:02:06 10° S 21:05:24 60° W 21:08:44 10° NNW
ATLAS CENTAUR R/B 3.3 21:02:46 10° NW 21:06:16 27° WSW 21:09:31 10° S
Resurs 01 Rocket 1.9 21:04:21 10° S 21:08:46 68° WSW 21:13:13 10° NNW
Resurs 1-3 3.6 21:05:48 10° SSE 21:10:11 86° WSW 21:14:36 10° NNW
ATLAS 5 CENTAUR R/B 2.4 21:09:33 10° SW 21:14:13 57° NW 21:19:16 10° NNE
CZ-2D R/B 3.2 21:18:24 59° ESE 21:18:45 63° ENE 21:22:37 10° N
Meteor 1-29 4.2 21:16:08 10° N 21:19:30 44° WNW 21:22:49 10° SSW
ISS -1.3 21:21:07 10° SSW 21:22:15 19° SSW 21:22:15 19° SSW
Cosmos 1953 3.4 21:21:48 10° SSW 21:25:37 44° W 21:29:27 10° N
SL-16 R/B 4.1 21:21:01 10° WSW 21:25:56 30° WNW 21:30:52 10° N
USA 215 4.0 21:20:38 10° NE 21:26:54 51° NW 21:33:09 10° WSW
Cosmos 1743 Rocket 3.4 21:23:00 10° N 21:27:28 82° E 21:28:38 49° SSE
BREEZE-M TANK 4.1 21:21:43 10° WNW 21:27:36 29° SW 21:29:14 20° S
Helios 1A 4.4 21:28:24 10° SSW 21:32:17 38° W 21:36:13 10° NNW
Gbstr 26 Del rocket 3.9 21:28:06 10° SSW 21:31:12 39° S 21:31:12 39° S
ERS-1 Rocket 4.2 21:34:55 27° NE 21:34:55 27° NE 21:37:49 10° N
H-2A R/B 2.8 21:36:26 77° WSW 21:36:31 77° WSW 21:40:25 10° NNW
Cosmos 1544 4.2 21:34:33 10° SSW 21:38:08 44° W 21:41:45 10° N
CZ-4B DEB 4.0 21:39:32 43° W 21:39:32 43° W 21:42:25 10° NNW
OAO 1 Rocket 4.3 21:33:59 10° W 21:39:20 73° S 21:39:51 67° SE
SeaSat 1 2.3 21:35:10 10° NNE 21:40:08 87° ESE 21:45:04 10° SSW
GP-B 4.1 21:36:12 10° N 21:38:50 34° NNE 21:38:50 34° NNE
Nadezhda 4 Rocket 4.1 21:36:39 10° N 21:42:56 75° W 21:48:44 12° S
Cosmos 1452 Rocket 4.4 21:39:18 10° NNW 21:44:20 47° WSW 21:47:54 18° S
ALOS 3.0 21:42:51 21° SSW 21:45:48 51° W 21:50:21 10° NNW
Cosmos 1092 Rocket 3.8 21:42:46 10° N 21:49:01 88° E 21:51:18 42° S
Cosmos 2142 Rocket 4.4 21:47:13 31° S 21:50:26 74° E 21:56:49 10° N
SEDSat Delta rocket 4.2 21:45:02 10° W 21:51:37 54° S 21:52:20 51° SSE
OAO 3 Rocket 3.4 21:46:58 10° W 21:51:10 62° SW 21:51:10 62° SW
FENGYUN 3A 4.3 21:48:13 16° S 21:52:19 52° W 21:57:34 10° NNW
Cosmos 1634 Rocket 3.9 21:54:35 10° S 22:00:51 86° W 22:07:07 10° N
Cosmos 2026 Rocket 4.2 21:58:30 10° N 22:03:21 53° NNE 22:03:21 53° NNE
Cosmos 839 Rocket 4.3 21:58:07 10° NNW 22:05:20 57° NE 22:05:20 57° NE
Cosmos 1943 4.1 22:04:03 10° SSW 22:14:49 13° NNE 22:15:21 10° NNE
Cosmos 2369 Rocket 2.7 22:06:31 10° NNW 22:10:43 49° N 22:10:43 49° N
Cosmos 1943 Rocket 3.9 22:14:29 10° N 22:16:47 22° NNE 22:16:47 22° NNE
CENTAUR R/B 3.1 22:34:19 10° SW 22:40:11 52° NW 22:46:47 10° NNE
